[[{"header":{"parameterUnit":"m.s-1","parameterCategory":1,"la1":30.2991,"la2":30.254,"lo1":-89.0895,"lo2":-89.0444,"dy":0.0017,"dx":0.0017,"nx":28,"ny":28,"refTime":"2024-12-17T03:00:00:Z","depth":0,"parameterNumber":2,"parameterNumberName":"U-component_of_WINDS"},"data":[0,0,0,0,0,0,0,0,0,0,0,0,0,0,0,0,0,0,0,0,0,0,0,0,0,0,0,0,0,0,0,0,0,0,0,0,0,0,0,0,0,0,0,0,0,0,0,0,0,0,0,0,0,0,0,0,0,0,-1.5089,-1.5089,0,-1.5061,-1.506,-1.506,-1.4976,-1.4974,-1.4972,-1.4971,-1.4944,-1.4945,-1.4946,0,0,0,0,0,0,0,0,0,0,0,0,0,-1.5074,-1.5074,-1.5089,-1.5089,-1.5088,-1.5061,-1.506,-1.506,-1.4976,-1.4974,-1.4972,-1.497,-1.4944,-1.4945,-1.4946,0,0,0,0,0,0,0,0,0,0,0,0,0,-1.5066,-1.5074,-1.5089,-1.5043,-1.5039,-1.5061,-1.506,-1.506,-1.4977,-1.4974,-1.4971,-1.4969,-1.4943,-1.4945,-1.4946,-1.5011,0,0,-1.4951,-1.4952,0,0,0,0,0,0,0,0,-1.5067,-1.5067,-1.505,-1.5046,-1.5042,-1.5019,-1.5045,-1.5044,-1.4978,-1.5001,-1.4971,-1.4967,-1.4972,-1.4971,-1.4971,-1.501,-1.5009,-1.4951,-1.4952,-1.4953,-1.4953,0,0,0,0,0,0,0,-1.5067,-1.5068,-1.5078,-1.505,-1.5045,-1.5025,-1.5021,-1.5044,-1.5002,-1.4998,-1.4992,-1.499,-1.4969,-1.497,-1.497,-1.5009,-1.4951,-1.4953,-1.4954,-1.4954,-1.51,-1.5103,0,0,0,0,0,0,-1.5074,-1.5069,-1.5079,-1.5077,-1.5048,-1.5028,-1.5023,-1.5029,-1.5001,-1.4995,-1.4992,-1.4986,-1.4969,-1.4968,-1.4969,-1.5044,-1.4953,-1.4954,-1.4955,-1.5097,-1.5101,-1.5104,0,0,0,0,0,0,-1.5074,-1.5076,-1.508,-1.5071,-1.507,-1.5031,-1.5038,-1.503,-1.5031,-1.4997,-1.4989,-1.5001,-1.4967,-1.4967,-1.5002,-1.5042,-1.4955,-1.4956,-1.5094,-1.5099,-1.5103,-1.5195,0,0,0,0,0,0,-1.5074,-1.5076,-1.51,-1.5072,-1.5071,-1.5113,-1.5041,-1.5031,-1.5034,-1.5026,-1.5003,-1.4997,-1.4965,-1.5,-1.5003,-1.5043,-1.4958,-1.509,-1.5096,-1.5101,-1.5188,-1.5202,-1.5214,0,0,0,0,0,-1.5074,-1.5127,-1.5102,-1.5103,-1.5099,-1.5115,-1.5114,-1.5075,-1.5038,-1.5062,-1.5039,-1.4998,-1.5037,-1.5004,-1.5007,-1.5048,-1.5087,-1.5094,-1.5101,-1.5182,-1.5199,-1.5214,0,0,0,0,0,0,-1.5162,-1.5123,-1.5094,-1.514,-1.5131,-1.5101,-1.513,-1.5094,-1.5096,-1.5089,-1.504,-1.5036,-1.5078,-1.5066,-1.503,-1.511,-1.5055,-1.5063,-1.5116,-1.5132,-1.5145,-1.5148,-1.4959,0,0,0,0,0,-1.5186,-1.5201,-1.5167,-1.5211,-1.5208,-1.517,-1.5175,-1.5145,-1.5135,-1.5131,-1.5111,-1.5104,-1.5114,-1.5122,-1.513,-1.5185,-1.518,-1.5215,-1.5228,-1.5239,-1.5246,-1.5277,-1.5292,-1.5126,-1.5126,-1.5126,0,0,-1.5237,-1.5218,-1.5231,-1.5228,-1.5218,-1.5235,-1.5167,-1.5189,-1.5202,-1.5134,-1.5166,-1.5152,-1.514,-1.5186,-1.5205,-1.5177,-1.5291,-1.5247,-1.5256,-1.5258,-1.5285,-1.5301,-1.5315,-1.5131,-1.513,-1.5129,0,0,-1.534,-1.5326,-1.5362,-1.5353,-1.5338,-1.5313,-1.5322,-1.5296,-1.5284,-1.5315,-1.5265,-1.528,-1.5299,-1.5293,-1.5293,-1.5394,-1.5356,-1.5397,-1.5465,-1.5495,-1.5508,-1.552,-1.5558,-1.5572,-1.5405,-1.5405,-1.5405,0,-1.5406,-1.543,-1.5385,-1.541,-1.5411,-1.535,-1.5387,-1.538,-1.537,-1.5372,-1.534,-1.5363,-1.5351,-1.5395,-1.542,-1.5421,-1.5431,-1.54,-1.551,-1.5521,-1.5531,-1.5566,-1.5581,-1.541,-1.541,-1.5409,-1.5409,0,-1.5513,-1.553,-1.5561,-1.5551,-1.5555,-1.5586,-1.5547,-1.5557,-1.5527,-1.5505,-1.5538,-1.5521,-1.5525,-1.5533,-1.5504,-1.5574,-1.5557,-1.5518,-1.5463,-1.5553,-1.5585,-1.5599,-1.5418,-1.5416,-1.5414,-1.5413,0,0,-1.5671,-1.5636,-1.5649,-1.5644,-1.5623,-1.5636,-1.5665,-1.5667,-1.5678,-1.5672,-1.5696,-1.5713,-1.5677,-1.5677,-1.5647,-1.5673,-1.5756,-1.5631,-1.563,-1.5656,-1.5834,-1.5865,-1.5881,-1.573,-1.5733,-1.5734,-1.5836,0,-1.577,-1.5816,-1.5776,-1.583,-1.5847,-1.5789,-1.5814,-1.5805,-1.5785,-1.5797,-1.5775,-1.5789,-1.574,-1.5739,-1.5762,-1.5741,-1.5791,-1.5733,-1.5754,-1.5755,-1.576,-1.5898,-1.593,-1.6026,-1.5848,-1.585,-1.5851,0,-1.5891,-1.5891,-1.5947,-1.5923,-1.5928,-1.5951,-1.5952,-1.5963,-1.5952,-1.5935,-1.5935,-1.5898,-1.5925,-1.587,-1.5908,-1.5869,-1.5875,-1.5866,-1.5869,-1.5871,-1.581,-1.5905,-1.6056,-1.6071,-1.5871,-1.5869,-1.5868,0,-1.6004,-1.6017,-1.6052,-1.605,-1.6023,-1.6041,-1.603,-1.6016,-1.6021,-1.6021,-1.6024,-1.6027,-1.603,-1.6034,-1.5999,-1.5962,-1.6043,-1.5984,-1.6031,-1.6033,-1.6052,-1.6052,-1.6208,-1.6053,-1.6053,-1.6053,-1.6053,0,-1.6119,-1.6156,-1.6102,-1.6124,-1.6164,-1.6119,-1.616,-1.6143,-1.6131,-1.615,-1.61,-1.6119,-1.6071,-1.6085,-1.6058,-1.6094,-1.6095,-1.6084,-1.6077,-1.609,-1.6092,-1.6094,-1.6088,-1.6057,-1.6056,-1.6055,-1.6055,0,-1.6252,-1.6217,-1.6252,-1.6224,-1.6218,-1.6248,-1.6224,-1.6244,-1.6221,-1.6245,-1.6248,-1.6212,-1.6226,-1.6191,-1.62,-1.6182,-1.6235,-1.6216,-1.6239,-1.6234,-1.6285,-1.6281,-1.6449,-1.647,-1.6301,-1.6302,-1.6304,0,-1.6329,-1.6356,-1.633,-1.6339,-1.6331,-1.6345,-1.635,-1.6306,-1.6313,-1.6303,-1.6324,-1.6334,-1.6339,-1.6365,-1.634,-1.6347,-1.6329,-1.6387,-1.633,-1.6342,-1.6332,-1.6332,-1.6335,-1.64,-1.6402,-1.6404,-1.6405,0,-1.647,-1.6452,-1.6459,-1.6462,-1.6468,-1.6468,-1.6464,-1.6475,-1.6428,-1.6439,-1.6452,-1.6456,-1.6465,-1.6476,-1.6478,-1.6468,-1.643,-1.6423,-1.6435,-1.6449,-1.6462,-1.6458,-1.6274,-1.642,-1.6419,-1.6417,-1.6417,-1.6416,-1.6578,-1.66,-1.6586,-1.6596,-1.6589,-1.6587,-1.6604,-1.6583,-1.6593,-1.6597,-1.657,-1.659,-1.6579,-1.6577,-1.6571,-1.6586,-1.656,-1.6577,-1.6581,-1.6586,-1.6596,-1.6458,-1.6586,-1.6586,-1.6585,-1.6585,-1.6585,0,-1.6718,-1.6706,-1.6716,-1.6713,-1.6722,-1.6683,-1.6677,-1.6688,-1.6705,-1.6697,-1.6704,-1.672,-1.6731,-1.6707,-1.6714,-1.6731,-1.6714,-1.6734,-1.6734,-1.6732,-1.6618,-1.6608,-1.6748,-1.6748,-1.6748,-1.6748,-1.6748,-1.6748,-1.6792,-1.6828,-1.6808,-1.6839,-1.6826,-1.6845,-1.6845,-1.6843,-1.6837,-1.6857,-1.6865,-1.6849,-1.6835,-1.6841,-1.6849,-1.6842,-1.6848,-1.6875,-1.6862,-1.6756,-1.674,-1.6725,-1.6716,-1.6876,-1.6876,-1.6976,-1.6977,-1.6977]},{"header":{"parameterUnit":"m.s-1","parameterCategory":1,"la1":30.2991,"la2":30.254,"lo1":-89.0895,"lo2":-89.0444,"dy":0.0017,"dx":0.0017,"nx":28,"ny":28,"refTime":"2024-12-17T03:00:00:Z","depth":0,"parameterNumber":3,"parameterNumberName":"V-component_of_WINDS"},"data":[0,0,0,0,0,0,0,0,0,0,0,0,0,0,0,0,0,0,0,0,0,0,0,0,0,0,0,0,0,0,0,0,0,0,0,0,0,0,0,0,0,0,0,0,0,0,0,0,0,0,0,0,0,0,0,0,0,0,-1.4542,-1.4542,0,-1.4572,-1.4572,-1.4573,-1.4548,-1.4547,-1.4546,-1.4545,-1.4574,-1.4576,-1.4577,0,0,0,0,0,0,0,0,0,0,0,0,0,-1.446,-1.4461,-1.4542,-1.4542,-1.4542,-1.4572,-1.4572,-1.4573,-1.4548,-1.4547,-1.4546,-1.4544,-1.4573,-1.4576,-1.4578,0,0,0,0,0,0,0,0,0,0,0,0,0,-1.4493,-1.4462,-1.4542,-1.4534,-1.4533,-1.4572,-1.4572,-1.4573,-1.4548,-1.4547,-1.4545,-1.4544,-1.4573,-1.4575,-1.4578,-1.4625,0,0,-1.4586,-1.4587,0,0,0,0,0,0,0,0,-1.4491,-1.4496,-1.4534,-1.4534,-1.4534,-1.4555,-1.4554,-1.4591,-1.4549,-1.4543,-1.4545,-1.4543,-1.4569,-1.4572,-1.4581,-1.4627,-1.4628,-1.4586,-1.4588,-1.4589,-1.459,0,0,0,0,0,0,0,-1.4489,-1.4495,-1.4554,-1.4535,-1.4535,-1.4528,-1.4531,-1.4561,-1.4564,-1.4543,-1.4541,-1.4545,-1.4568,-1.4578,-1.4581,-1.4628,-1.4586,-1.4588,-1.459,-1.4591,-1.4715,-1.4716,0,0,0,0,0,0,-1.4488,-1.4493,-1.4553,-1.4555,-1.4508,-1.4531,-1.4534,-1.455,-1.4564,-1.4564,-1.4547,-1.4544,-1.4574,-1.4578,-1.4582,-1.4639,-1.4589,-1.4591,-1.4593,-1.4713,-1.4715,-1.4717,0,0,0,0,0,0,-1.4486,-1.4493,-1.4551,-1.4523,-1.453,-1.4534,-1.4551,-1.4551,-1.4561,-1.4566,-1.4567,-1.4556,-1.4573,-1.4578,-1.4615,-1.4639,-1.4593,-1.4595,-1.4711,-1.4713,-1.4716,-1.4753,0,0,0,0,0,0,-1.4484,-1.4493,-1.4512,-1.4524,-1.4532,-1.4585,-1.4553,-1.4553,-1.4566,-1.4563,-1.4576,-1.4576,-1.4573,-1.4611,-1.4618,-1.4642,-1.4597,-1.4709,-1.4712,-1.4715,-1.4749,-1.4756,-1.4762,0,0,0,0,0,-1.4481,-1.452,-1.4513,-1.452,-1.4556,-1.4586,-1.4591,-1.4586,-1.4568,-1.4586,-1.459,-1.4576,-1.4635,-1.4615,-1.4622,-1.4648,-1.4707,-1.4711,-1.4715,-1.4746,-1.4755,-1.4762,0,0,0,0,0,0,-1.451,-1.4522,-1.4514,-1.4558,-1.4572,-1.4582,-1.4605,-1.4595,-1.4613,-1.461,-1.4602,-1.4606,-1.4644,-1.4649,-1.4626,-1.4694,-1.4668,-1.4674,-1.469,-1.4698,-1.4704,-1.4702,-1.4599,0,0,0,0,0,-1.4522,-1.4547,-1.4555,-1.4594,-1.4601,-1.4602,-1.4615,-1.4611,-1.4624,-1.4629,-1.4635,-1.4648,-1.4669,-1.4684,-1.4704,-1.4749,-1.4752,-1.477,-1.4777,-1.4782,-1.4787,-1.4811,-1.482,-1.4729,-1.4729,-1.4729,0,0,-1.4547,-1.4556,-1.4572,-1.46,-1.461,-1.4635,-1.4607,-1.4635,-1.4653,-1.4633,-1.4668,-1.4673,-1.4686,-1.4728,-1.4746,-1.4733,-1.4812,-1.4787,-1.4791,-1.4793,-1.4816,-1.4825,-1.4832,-1.4732,-1.4731,-1.4731,0,0,-1.4604,-1.4614,-1.4647,-1.4657,-1.4673,-1.4673,-1.4681,-1.4693,-1.4695,-1.4731,-1.4716,-1.4737,-1.4774,-1.4785,-1.4795,-1.4855,-1.4843,-1.4862,-1.4896,-1.4919,-1.4927,-1.4933,-1.4955,-1.4963,-1.4867,-1.4867,-1.4867,0,-1.4633,-1.4671,-1.4665,-1.4695,-1.4707,-1.469,-1.4723,-1.4733,-1.4754,-1.4763,-1.4748,-1.4794,-1.4802,-1.4846,-1.486,-1.4869,-1.4878,-1.4861,-1.4926,-1.4932,-1.4938,-1.4959,-1.4967,-1.4869,-1.4869,-1.4868,-1.4868,0,-1.4705,-1.4732,-1.4757,-1.4778,-1.4793,-1.4824,-1.4822,-1.4838,-1.4832,-1.4833,-1.4869,-1.4878,-1.4899,-1.4909,-1.4903,-1.4951,-1.4943,-1.4927,-1.4901,-1.4949,-1.4969,-1.4977,-1.4872,-1.4871,-1.4871,-1.487,0,0,-1.4784,-1.4801,-1.481,-1.482,-1.4835,-1.4855,-1.4884,-1.4906,-1.492,-1.4934,-1.4958,-1.499,-1.4975,-1.4987,-1.4981,-1.5002,-1.505,-1.4984,-1.4984,-1.4996,-1.5104,-1.5117,-1.5126,-1.5041,-1.5043,-1.5044,-1.5103,0,-1.4842,-1.4895,-1.4891,-1.494,-1.4965,-1.4948,-1.4974,-1.4986,-1.4988,-1.5008,-1.5009,-1.5032,-1.5011,-1.5018,-1.5037,-1.504,-1.5072,-1.5036,-1.5064,-1.5065,-1.5062,-1.5136,-1.515,-1.5205,-1.5111,-1.5112,-1.5113,0,-1.4919,-1.4937,-1.4989,-1.5,-1.501,-1.5033,-1.5053,-1.5072,-1.5084,-1.5084,-1.5097,-1.5088,-1.5116,-1.5089,-1.5128,-1.5104,-1.5115,-1.5118,-1.512,-1.5123,-1.5093,-1.5142,-1.5223,-1.5231,-1.5125,-1.5124,-1.5123,0,-1.4971,-1.5008,-1.5044,-1.5053,-1.5066,-1.5083,-1.5089,-1.51,-1.5113,-1.513,-1.5138,-1.5157,-1.5168,-1.5182,-1.5178,-1.5159,-1.5219,-1.5191,-1.5219,-1.522,-1.5234,-1.5233,-1.5318,-1.524,-1.5239,-1.5239,-1.5239,0,-1.5038,-1.5071,-1.5068,-1.5091,-1.5127,-1.512,-1.5156,-1.516,-1.5169,-1.5191,-1.5178,-1.5199,-1.5191,-1.5212,-1.5208,-1.5242,-1.5246,-1.5247,-1.5246,-1.5249,-1.5249,-1.5257,-1.5253,-1.5241,-1.5241,-1.5241,-1.524,0,-1.5104,-1.5103,-1.5142,-1.5151,-1.5154,-1.5181,-1.5188,-1.5209,-1.5209,-1.5238,-1.5244,-1.5244,-1.5267,-1.5264,-1.529,-1.5288,-1.5329,-1.5323,-1.5326,-1.5325,-1.5354,-1.5351,-1.5447,-1.546,-1.5372,-1.5373,-1.5374,0,-1.5147,-1.5172,-1.5185,-1.5199,-1.5207,-1.523,-1.5243,-1.5237,-1.5251,-1.5267,-1.5285,-1.5307,-1.5325,-1.5362,-1.5364,-1.5384,-1.5378,-1.541,-1.5381,-1.5383,-1.538,-1.5379,-1.5381,-1.5417,-1.5418,-1.5418,-1.5419,0,-1.5224,-1.5223,-1.5243,-1.5263,-1.528,-1.5295,-1.5309,-1.5321,-1.5316,-1.5333,-1.5357,-1.537,-1.5396,-1.5418,-1.5436,-1.5442,-1.543,-1.5428,-1.5436,-1.544,-1.5441,-1.5441,-1.5342,-1.5426,-1.5426,-1.5425,-1.5425,-1.5424,-1.5281,-1.5302,-1.5314,-1.5337,-1.5347,-1.536,-1.538,-1.5383,-1.5403,-1.5424,-1.5419,-1.5446,-1.5456,-1.5479,-1.5487,-1.5507,-1.5495,-1.5506,-1.5509,-1.5512,-1.5516,-1.5436,-1.551,-1.551,-1.551,-1.551,-1.5509,0,-1.5358,-1.5364,-1.5386,-1.5406,-1.5424,-1.5411,-1.5425,-1.5441,-1.5465,-1.5476,-1.5493,-1.552,-1.5541,-1.5545,-1.5564,-1.558,-1.5575,-1.5586,-1.5585,-1.5586,-1.5525,-1.5517,-1.5589,-1.5589,-1.5589,-1.5589,-1.5589,-1.5589,-1.54,-1.5436,-1.5435,-1.5475,-1.5481,-1.5508,-1.5518,-1.5529,-1.5538,-1.5569,-1.5587,-1.5589,-1.5597,-1.5617,-1.5635,-1.5636,-1.5644,-1.5657,-1.5655,-1.5598,-1.5591,-1.5583,-1.5575,-1.5658,-1.5659,-1.5714,-1.5715,-1.5715]}]]